Theta_e
310 309 310 310 308 310 309 311 312 310 311 311 309 308 309 312 310 310 313 314 314 314 316 314 313 313 312 311 311 311 312 312 312 313 314 323 321 322 322 323 321 323 322 323
309 309 309 309 308 311 311 312 311 309 310 311 310 310 309 309 309 312 314 314 315 316 317 316 314 313 312 312 311 311 311 312 312 312 315 322 319 321 322 321 322 322 321 320
310 312 309 310 310 311 310 310 310 312 311 308 309 309 308 309 310 312 313 314 315 316 317 317 315 314 313 313 312 311 311 311 312 312 315 321 319 320 320 321 320 319 318 318
310 310 311 310 311 310 311 308 310 311 313 312 310 312 309 310 309 308 313 314 316 316 316 316 315 315 314 314 312 311 310 311 312 313 318 320 317 319 320 319 319 319 318 318
311 310 311 312 311 309 312 309 309 311 311 312 310 312 310 310 311 311 312 315 317 317 317 316 316 315 314 313 312 310 309 310 312 313 315 316 318 319 319 318 318 317 317 317
310 310 310 311 310 310 308 310 309 308 309 313 311 311 312 311 312 311 312 315 316 316 316 315 315 314 313 312 311 309 308 310 312 313 314 316 317 318 317 317 317 317 316 314
311 310 310 311 311 310 311 312 313 312 311 315 309 311 314 310 310 309 311 315 315 315 315 316 317 316 315 313 310 309 308 309 312 313 315 315 316 317 316 317 316 315 315 310
311 311 310 308 311 312 310 312 313 312 310 310 309 312 312 309 310 313 313 315 314 314 315 316 316 315 314 312 310 309 308 309 312 313 315 315 316 315 315 315 316 315 314 309
310 310 309 308 310 311 311 312 312 312 296 307 310 309 309 308 309 310 312 313 315 315 316 317 316 315 313 312 310 308 308 308 311 313 315 315 314 315 315 314 315 315 314 304
310 312 309 309 310 310 310 310 313 309 311 309 311 311 313 314 311 310 308 313 315 316 316 317 316 315 313 312 309 308 307 308 310 313 315 314 313 314 314 314 314 313 307 299
310 312 310 309 309 310 311 312 311 311 310 310 309 313 308 311 311 311 310 315 315 316 317 316 316 315 313 310 309 308 307 308 311 313 315 313 312 313 313 313 312 310 302 297
309 311 313 310 308 306 308 310 310 311 310 308 309 315 309 309 308 309 313 315 315 316 315 314 314 315 313 312 310 308 307 307 309 312 314 312 310 310 310 311 311 306 298 295
311 314 312 313 311 307 309 308 310 308 305 310 311 316 306 307 306 311 312 314 315 315 316 316 315 315 314 313 311 309 307 307 309 311 313 312 309 309 309 310 310 302 295 294
313 313 314 317 313 310 309 308 309 312 313 315 313 314 313 311 309 308 312 313 314 316 315 315 316 316 313 313 311 309 308 307 308 310 311 311 310 309 310 310 307 299 295 293
314 314 313 314 311 310 309 309 310 312 313 313 315 313 314 312 310 312 316 314 315 316 315 316 316 316 314 313 312 310 308 307 307 307 309 310 309 310 310 309 304 296 293 292
313 315 312 315 313 311 312 309 309 311 312 312 313 313 314 313 313 311 314 316 315 315 315 316 316 315 316 315 313 311 309 307 306 306 306 308 310 310 309 306 299 295 293 292
314 313 314 318 314 312 315 314 315 313 311 312 313 314 312 313 311 312 313 314 315 316 316 316 316 315 315 316 315 312 311 308 306 304 304 305 308 308 306 303 297 294 292 292
312 311 313 317 314 319 315 311 313 314 313 312 312 313 313 313 313 313 314 314 314 314 314 315 314 314 315 315 314 311 309 308 305 303 303 303 305 305 303 300 297 293 291 291
314 312 315 318 318 317 313 311 311 311 314 312 312 312 312 312 311 312 313 313 313 313 313 313 314 313 312 312 312 309 307 306 304 303 302 302 303 303 302 299 296 293 292 291
310 314 314 315 319 318 314 310 311 310 317 313 312 313 313 312 312 314 313 314 314 314 314 313 313 312 312 311 310 307 306 304 303 301 300 300 301 301 301 297 294 293 291 292
313 313 316 316 318 314 305 299 310 316 313 302 309 312 311 310 313 312 312 313 314 314 313 313 313 311 310 309 307 306 304 303 301 299 298 297 298 298 297 295 293 294 294 291
313 313 316 315 317 318 303 305 311 306 302 302 305 306 307 308 309 309 310 310 310 310 310 310 309 308 307 306 304 302 301 299 298 297 296 295 295 295 293 293 297 297 292 289
311 310 312 313 313 307 306 308 312 312 311 309 308 310 310 308 307 306 307 308 308 307 307 307 306 305 304 303 301 301 299 298 297 296 294 294 293 293 293 293 293 290 290 290
301 302 307 309 306 307 308 306 305 306 308 308 309 311 311 309 307 305 306 306 305 304 304 304 303 302 302 300 299 298 299 298 298 299 298 298 297 294 293 292 292 293 294 294
300 300 303 305 304 302 306 307 310 308 308 309 308 305 305 306 305 305 305 305 305 304 304 303 302 302 302 301 300 301 303 303 303 302 301 300 298 298 297 297 296 295 294 292
299 301 306 306 304 304 304 304 305 305 306 306 304 302 301 302 302 301 301 304 305 305 304 302 302 303 303 301 300 300 300 299 298 298 296 295 295 294 293 292 292 291 290 290
Wind_Speed
2 4 7 13 7 3 5 4 4 4 3 4 8 10 11 20 17 26 31 29 32 37 35 34 33 33 33 34 34 33 31 27 25 26 28 29 28 27 26 26 24 25 24 24
4 6 10 5 5 4 3 3 5 5 3 3 8 14 13 10 16 29 35 37 38 37 37 36 35 37 38 37 36 35 33 30 27 27 28 30 28 28 27 26 26 24 23 21
8 5 4 7 4 5 4 6 5 6 3 4 5 8 9 8 22 33 36 38 38 42 43 42 40 40 40 40 39 37 35 32 30 30 30 31 29 29 31 31 28 27 22 23
6 4 5 4 5 8 7 8 6 4 2 5 1 6 7 6 10 10 31 36 44 46 46 45 43 43 45 43 40 38 37 34 32 31 31 33 33 36 34 29 28 27 23 25
8 8 6 6 7 8 6 5 7 3 3 3 3 1 7 2 7 13 20 37 41 40 39 39 40 40 41 45 44 41 39 36 34 32 34 32 33 33 31 30 30 29 27 26
4 1 7 7 2 5 8 6 6 4 2 5 10 8 10 6 10 7 15 33 33 31 27 26 26 28 32 37 44 43 41 38 36 35 35 36 35 34 34 35 33 31 29 29
2 5 3 4 6 3 2 6 2 3 1 10 2 4 18 4 8 12 14 32 25 18 15 14 17 20 25 31 39 45 43 41 39 37 36 36 36 35 34 34 33 32 33 34
10 10 11 7 9 9 9 8 6 8 5 6 3 8 7 10 16 27 29 33 30 25 18 17 16 18 21 26 33 43 45 43 41 38 38 37 35 36 36 34 36 33 34 35
6 7 2 3 3 11 7 8 4 1 2 2 6 8 9 11 12 14 25 23 27 21 15 14 15 17 20 24 29 40 45 43 41 39 39 38 37 38 38 36 35 35 36 38
4 5 1 2 2 2 6 6 3 2 3 5 6 6 8 5 11 13 10 26 27 17 13 11 12 14 16 19 24 33 42 43 41 40 40 38 38 39 38 36 36 37 38 40
7 5 2 1 7 9 3 5 2 4 5 5 3 8 8 13 12 9 10 11 8 6 9 9 8 11 14 17 22 30 40 43 42 40 40 39 39 39 37 36 37 39 40 40
9 4 13 12 2 3 3 5 8 5 5 3 3 16 5 9 7 11 14 7 5 5 6 5 6 10 14 17 21 28 38 42 41 40 41 40 39 39 39 39 39 41 43 41
7 3 2 7 1 2 5 5 6 5 3 11 6 20 4 4 7 6 11 10 7 4 6 7 8 12 14 16 20 27 35 40 41 41 42 42 41 42 42 42 42 43 44 41
18 6 8 12 4 5 6 7 12 13 7 23 12 32 10 4 7 8 14 15 12 12 13 12 15 19 18 19 22 27 34 40 42 43 44 44 44 41 43 43 43 45 44 41
8 10 14 21 7 5 7 6 12 20 28 9 32 18 29 16 12 17 23 21 21 28 24 24 24 25 23 23 25 28 33 38 42 44 45 46 45 43 44 44 45 46 45 42
8 6 8 17 18 8 7 8 16 22 22 20 29 27 13 16 18 16 30 38 38 38 35 33 31 29 28 29 29 30 34 38 42 45 46 45 46 45 44 44 46 47 45 44
9 6 6 13 10 8 9 27 25 19 19 20 21 37 11 21 16 26 29 37 40 36 40 42 40 35 31 31 34 34 35 38 41 44 45 46 46 46 45 45 47 47 46 44
7 11 6 7 4 12 13 6 21 22 27 24 27 34 32 22 31 31 37 37 39 41 41 40 37 35 36 37 37 34 34 36 39 42 44 46 46 46 46 46 46 46 45 44
15 11 7 10 16 10 9 8 8 10 19 20 27 30 33 38 21 41 39 42 45 43 41 37 30 27 28 32 33 33 32 33 37 40 43 45 47 47 46 46 45 45 44 42
24 17 8 4 9 10 12 11 14 6 11 17 18 25 27 15 9 22 12 15 16 16 17 18 20 23 23 24 26 27 29 31 34 38 40 41 43 44 44 44 43 41 38 38
14 15 22 19 10 4 5 4 13 10 7 8 6 22 17 8 15 16 5 9 20 24 24 25 23 20 16 17 19 22 24 26 27 28 31 34 37 39 39 37 37 33 37 37
7 6 9 10 11 15 9 3 10 5 1 2 4 6 8 10 13 15 17 17 17 20 17 13 12 12 12 11 11 14 15 16 17 18 21 26 31 35 35 34 35 34 36 35
4 6 3 8 5 1 20 7 15 13 15 12 10 9 8 11 14 14 13 13 12 11 9 7 6 6 7 8 8 9 11 11 13 15 17 19 24 30 33 35 33 30 30 34
4 5 4 1 5 9 16 21 14 18 17 13 10 11 9 8 6 8 8 8 7 5 3 3 5 8 11 12 12 10 10 10 11 12 15 18 23 27 30 32 33 33 31 30
5 5 5 5 7 8 21 23 26 25 17 15 16 15 12 9 10 8 6 5 4 2 4 7 8 11 13 15 15 15 11 9 10 11 12 14 14 16 18 20 21 24 24 25
6 6 4 4 5 5 7 6 14 21 24 19 16 13 9 7 6 6 4 7 8 6 8 11 12 11 12 14 15 14 13 12 12 13 14 15 15 16 17 18 19 20 21 22
Wind_Direction
78 103 207 210 194 127 138 179 222 249 241 184 238 261 260 270 254 255 253 252 251 250 255 247 243 242 241 239 238 238 239 238 233 219 215 207 209 213 217 218 222 222 226 224
46 226 230 128 166 175 145 185 248 281 246 198 273 265 262 234 248 248 252 252 249 252 252 250 241 239 240 241 240 238 237 236 234 222 218 213 211 212 214 217 215 217 221 227
172 217 133 153 160 166 212 192 220 228 330 244 315 279 253 255 239 252 254 255 255 253 253 252 246 242 241 240 239 238 236 234 231 222 214 210 209 213 215 212 216 218 221 214
235 230 152 177 194 157 239 206 174 184 63 251 122 287 281 247 246 233 251 254 256 255 254 255 255 247 244 244 240 237 233 232 229 223 213 215 220 210 211 216 214 216 215 211
236 177 178 191 200 168 224 131 160 136 174 323 176 256 251 301 266 258 250 253 257 260 264 264 263 259 251 243 239 235 229 228 227 220 216 216 216 220 216 215 216 214 213 208
236 208 171 198 115 159 150 83 58 53 98 278 179 165 261 201 218 260 258 260 263 266 270 271 268 261 252 244 237 232 228 226 225 220 216 214 215 214 217 214 212 210 209 202
113 215 188 165 93 53 143 107 305 327 39 241 68 168 251 306 258 225 246 265 274 273 271 271 264 256 251 242 232 227 225 225 223 219 215 215 215 219 221 218 212 213 207 199
202 258 164 192 191 165 200 166 172 210 202 263 136 228 249 242 260 252 257 262 269 272 281 282 269 257 252 245 233 226 223 223 222 219 215 213 215 219 220 223 221 217 215 204
172 261 221 165 154 157 195 208 240 82 94 359 232 278 293 255 267 263 254 261 266 271 276 276 268 263 255 247 237 227 222 223 224 221 217 214 216 219 220 220 220 218 214 202
227 282 102 324 134 21 175 165 79 340 196 249 265 264 227 272 245 253 262 257 268 277 266 270 272 267 262 251 239 229 225 227 226 222 217 215 220 221 221 220 222 217 206 202
195 173 231 120 216 168 137 207 175 141 161 193 287 262 214 220 223 226 246 252 266 264 254 250 260 264 260 249 239 229 223 225 225 224 218 216 219 221 220 220 221 216 207 204
208 195 245 224 254 252 286 239 167 150 219 242 170 268 159 219 271 238 248 266 275 259 255 255 258 262 259 252 242 228 223 225 226 225 220 217 219 220 221 220 220 214 208 206
171 148 292 311 345 327 218 201 187 114 77 226 165 256 328 24 312 245 247 252 247 251 268 286 277 269 258 253 243 231 225 226 227 225 223 222 220 220 222 221 219 212 208 208
150 161 195 231 194 137 190 200 191 194 211 243 230 258 261 297 260 287 275 263 265 261 260 272 283 274 260 252 245 235 228 226 227 226 226 226 226 227 223 224 218 212 210 210
149 214 215 242 246 176 195 192 200 208 230 204 252 246 255 240 254 261 264 270 272 268 263 279 279 272 267 258 248 240 234 231 229 228 228 228 228 227 226 223 214 211 212 211
169 236 191 250 243 209 241 217 218 218 233 239 254 260 270 248 251 246 252 257 265 269 270 272 267 262 266 266 257 246 241 235 231 229 230 229 227 226 224 218 213 211 212 212
188 197 188 240 231 189 234 238 239 229 231 223 243 250 245 262 247 247 254 258 262 265 270 272 271 270 266 268 265 252 244 239 235 231 230 228 226 225 222 217 214 214 214 213
188 201 205 238 148 218 232 191 219 219 232 226 244 255 257 259 262 265 262 263 268 269 270 273 272 272 269 267 261 253 244 241 237 232 230 228 226 224 221 218 216 216 217 217
223 202 232 225 237 250 286 245 167 172 250 228 230 249 260 260 274 274 270 272 275 279 282 281 278 274 268 265 262 253 243 239 237 234 230 227 224 222 221 220 217 216 218 219
216 239 225 189 224 235 240 238 159 108 256 249 215 241 253 244 242 266 285 272 271 276 276 279 283 275 264 261 258 246 242 239 236 234 230 227 224 222 220 219 217 218 219 225
207 214 229 241 251 268 256 233 142 166 230 340 244 243 270 210 235 258 281 275 287 284 280 282 277 273 263 255 248 240 237 236 237 236 232 228 224 222 221 219 216 223 231 226
200 214 222 220 230 237 184 126 175 183 290 6 13 353 326 312 299 287 287 287 280 280 282 274 266 259 248 238 229 225 224 223 225 226 227 225 221 218 216 213 228 235 225 224
259 226 205 201 214 239 188 221 218 209 218 216 197 214 271 292 302 304 304 298 288 278 267 259 242 227 203 182 176 184 183 188 196 201 208 212 213 216 218 221 223 221 222 226
231 226 211 245 247 248 237 235 243 226 239 249 246 248 237 248 268 284 294 287 289 288 266 203 166 160 157 141 134 134 143 157 171 181 189 201 206 208 213 215 220 228 233 233
233 152 200 265 282 284 274 257 247 240 235 243 250 253 256 245 240 241 250 267 265 193 146 143 142 145 143 140 142 147 162 170 178 179 184 189 190 193 200 208 215 222 226 229
202 184 191 243 249 256 273 312 247 236 230 242 253 246 241 238 257 269 234 200 198 190 177 162 155 155 153 150 152 153 156 160 167 171 177 182 185 186 192 199 205 209 215 223